9A4AM-13 Weather Reports


time (UTC)temp
C
wind
direction
speed
KPH
gust
KPH
rain 1hr
cm
rain 24hr
cm
rain mn
cm
humidity
%
barometer
mb
20260506234755 15 0.0 0.0 0.00 0.00 0.00 10 -204.1
20260506233754 15 0.0 0.0 0.00 0.00 0.00 10 -204.0
20260506232754 15 0.0 0.0 0.00 0.00 0.00 10 -204.1
20260506231754 15 0.0 0.0 0.00 0.00 0.00 10 -204.1
20260506230754 15 0.0 0.0 0.00 0.00 0.00 10 -204.0
20260506225754 15 0.0 0.0 0.00 0.00 0.00 10 -204.0
20260506224754 15 0.0 0.0 0.00 0.00 0.00 10 -204.1
20260506223754 15 0.0 0.0 0.00 0.00 0.00 10 -204.0
20260506221754 15 0.0 0.0 0.00 0.00 0.00 10 -204.1
20260506220754 15 0.0 0.0 0.00 0.00 0.00 10 -204.1
20260506215755 15 0.0 0.0 0.00 0.00 0.00 10 -204.0
20260506214754 15 0.0 0.0 0.00 0.00 0.00 10 -203.9
20260506213754 15 0.0 0.0 0.00 0.00 0.00 10 -203.9
20260506212754 15 0.0 0.0 0.00 0.00 0.00 10 -203.9
20260506211754 15 0.0 0.0 0.00 0.00 0.00 10 -203.9
20260506210754 15 0.0 0.0 0.00 0.00 0.00 10 -203.9
20260506205754 15 0.0 0.0 0.00 0.00 0.00 10 -203.9
20260506204754 15 0.0 0.0 0.00 0.00 0.00 10 -203.9
20260506203754 15 0.0 0.0 0.00 0.00 0.00 10 -204.1
20260506202754 15 0.0 0.0 0.00 0.00 0.00 10 -204.1
20260506201754 15 0.0 0.0 0.00 0.00 0.00 10 -204.1
20260506200754 16 0.0 0.0 0.00 0.00 0.00 10 -204.3
20260506195754 16 0.0 0.0 0.00 0.00 0.00 10 -204.2
20260506194754 16 0.0 0.0 0.00 0.00 0.00 10 -204.3
20260506193754 16 0.0 0.0 0.00 0.00 0.00 10 -204.3
20260506192755 16 0.0 0.0 0.00 0.00 0.00 10 -204.4
20260506191754 17 0.0 0.0 0.00 0.00 0.00 10 -204.5
20260506190755 17 0.0 0.0 0.00 0.00 0.00 10 -204.5
20260506185754 17 0.0 0.0 0.00 0.00 0.00 10 -204.6
20260506184754 17 0.0 0.0 0.00 0.00 0.00 10 -204.6
20260506183754 17 0.0 0.0 0.00 0.00 0.00 10 -204.6
20260506182754 17 0.0 0.0 0.00 0.00 0.00 10 -204.5
20260506181754 17 0.0 0.0 0.00 0.00 0.00 10 -204.7
20260506180754 17 0.0 0.0 0.00 0.00 0.00 10 -204.7
20260506175754 17 0.0 0.0 0.00 0.00 0.00 10 -204.5
20260506174753 17 0.0 0.0 0.00 0.00 0.00 10 -204.7
20260506173753 17 0.0 0.0 0.00 0.00 0.00 10 -204.7
20260506172753 17 0.0 0.0 0.00 0.00 0.00 10 -204.8
20260506171753 17 0.0 0.0 0.00 0.00 0.00 10 -204.8
20260506170753 18 0.0 0.0 0.00 0.00 0.00 10 -204.8
20260506165753 17 0.0 0.0 0.00 0.00 0.00 10 -204.8
20260506164753 18 0.0 0.0 0.00 0.00 0.00 10 -204.9
20260506163753 19 0.0 0.0 0.00 0.00 0.00 10 -205.2
20260506162753 20 0.0 0.0 0.00 0.00 0.00 10 -205.5
20260506161753 20 0.0 0.0 0.00 0.00 0.00 10 -205.5
20260506160753 20 0.0 0.0 0.00 0.00 0.00 10 -205.4
20260506155753 20 0.0 0.0 0.00 0.00 0.00 10 -205.5
20260506154753 21 0.0 0.0 0.00 0.00 0.00 10 -205.6
20260506153753 21 0.0 0.0 0.00 0.00 0.00 10 -205.9
20260506152753 21 0.0 0.0 0.00 0.00 0.00 10 -205.9
20260506151753 22 0.0 0.0 0.00 0.00 0.00 10 -206.1
20260506150753 22 0.0 0.0 0.00 0.00 0.00 10 -206.2
20260506145753 23 0.0 0.0 0.00 0.00 0.00 10 -206.3
20260506144753 23 0.0 0.0 0.00 0.00 0.00 10 -206.3
20260506143753 23 0.0 0.0 0.00 0.00 0.00 10 -206.2
20260506142753 23 0.0 0.0 0.00 0.00 0.00 10 -206.3
20260506141753 23 0.0 0.0 0.00 0.00 0.00 10 -206.4
20260506140753 24 0.0 0.0 0.00 0.00 0.00 10 -206.7
20260506135753 26 0.0 0.0 0.00 0.00 0.00 10 -207.2
20260506134753 27 0.0 0.0 0.00 0.00 0.00 10 -207.3
20260506133753 25 0.0 0.0 0.00 0.00 0.00 10 -206.9
20260506132753 26 0.0 0.0 0.00 0.00 0.00 10 -207.3
20260506131753 28 0.0 0.0 0.00 0.00 0.00 10 -207.6
20260506130753 25 0.0 0.0 0.00 0.00 0.00 10 -207.0
20260506125753 26 0.0 0.0 0.00 0.00 0.00 10 -207.2
20260506124753 28 0.0 0.0 0.00 0.00 0.00 10 -207.7
20260506123753 29 0.0 0.0 0.00 0.00 0.00 10 -208.0
20260506122753 28 0.0 0.0 0.00 0.00 0.00 10 -207.9
20260506121753 26 0.0 0.0 0.00 0.00 0.00 10 -207.3
20260506120753 27 0.0 0.0 0.00 0.00 0.00 10 -207.6
20260506115753 26 0.0 0.0 0.00 0.00 0.00 10 -207.3
20260506114753 27 0.0 0.0 0.00 0.00 0.00 10 -207.5
20260506113753 27 0.0 0.0 0.00 0.00 0.00 10 -207.6
20260506112753 25 0.0 0.0 0.00 0.00 0.00 10 -206.7
20260506111753 24 0.0 0.0 0.00 0.00 0.00 10 -206.7
20260506110752 26 0.0 0.0 0.00 0.00 0.00 10 -207.2
20260506105752 27 0.0 0.0 0.00 0.00 0.00 10 -207.5
20260506104752 27 0.0 0.0 0.00 0.00 0.00 10 -207.5
20260506103752 26 0.0 0.0 0.00 0.00 0.00 10 -207.1
20260506102752 26 0.0 0.0 0.00 0.00 0.00 10 -207.1
20260506101752 25 0.0 0.0 0.00 0.00 0.00 10 -207.0
20260506100752 25 0.0 0.0 0.00 0.00 0.00 10 -206.7
20260506095752 23 0.0 0.0 0.00 0.00 0.00 10 -206.4
20260506094752 23 0.0 0.0 0.00 0.00 0.00 10 -206.5
20260506093752 25 0.0 0.0 0.00 0.00 0.00 10 -206.8
20260506092752 25 0.0 0.0 0.00 0.00 0.00 10 -206.8
20260506091752 25 0.0 0.0 0.00 0.00 0.00 10 -206.9
20260506090752 24 0.0 0.0 0.00 0.00 0.00 10 -206.7
20260506085752 22 0.0 0.0 0.00 0.00 0.00 10 -206.1
20260506084752 22 0.0 0.0 0.00 0.00 0.00 10 -206.1
20260506083752 21 0.0 0.0 0.00 0.00 0.00 10 -205.7
20260506082752 21 0.0 0.0 0.00 0.00 0.00 10 -205.7
20260506081752 20 0.0 0.0 0.00 0.00 0.00 10 -205.5
20260506080752 20 0.0 0.0 0.00 0.00 0.00 10 -205.5
20260506072753 19 0.0 0.0 0.00 0.00 0.00 10 -205.1
20260506071752 18 0.0 0.0 0.00 0.00 0.00 10 -205.1
20260506070752 18 0.0 0.0 0.00 0.00 0.00 10 -204.8
20260506061752 16 0.0 0.0 0.00 0.00 0.00 10 -204.2
20260506050752 12 0.0 0.0 0.00 0.00 0.00 10 -203.2
20260506044752 11 0.0 0.0 0.00 0.00 0.00 10 -203.0
20260506043752 11 0.0 0.0 0.00 0.00 0.00 10 -202.9
20260506042752 11 0.0 0.0 0.00 0.00 0.00 10 -203.0
20260506041752 11 0.0 0.0 0.00 0.00 0.00 10 -203.0
20260506040752 11 0.0 0.0 0.00 0.00 0.00 10 -202.9
20260506035751 11 0.0 0.0 0.00 0.00 0.00 10 -202.8
20260506034751 11 0.0 0.0 0.00 0.00 0.00 10 -202.7
20260506033751 10 0.0 0.0 0.00 0.00 0.00 10 -202.7
20260506032751 10 0.0 0.0 0.00 0.00 0.00 10 -202.6
20260506031751 10 0.0 0.0 0.00 0.00 0.00 10 -202.6
20260506030751 10 0.0 0.0 0.00 0.00 0.00 10 -202.6
20260506025751 10 0.0 0.0 0.00 0.00 0.00 10 -202.6
20260506024751 10 0.0 0.0 0.00 0.00 0.00 10 -202.7
20260506023751 10 0.0 0.0 0.00 0.00 0.00 10 -202.6
20260506022751 10 0.0 0.0 0.00 0.00 0.00 10 -202.6
20260506021751 10 0.0 0.0 0.00 0.00 0.00 10 -202.5
20260506020751 9 0.0 0.0 0.00 0.00 0.00 10 -202.4
20260506015751 10 0.0 0.0 0.00 0.00 0.00 10 -202.6
20260506014751 10 0.0 0.0 0.00 0.00 0.00 10 -202.6
20260506013751 10 0.0 0.0 0.00 0.00 0.00 10 -202.6
20260506012751 10 0.0 0.0 0.00 0.00 0.00 10 -202.5
20260506011751 10 0.0 0.0 0.00 0.00 0.00 10 -202.7
20260506010751 10 0.0 0.0 0.00 0.00 0.00 10 -202.6
20260506005751 10 0.0 0.0 0.00 0.00 0.00 10 -202.7
20260506004751 10 0.0 0.0 0.00 0.00 0.00 10 -202.7
20260506003751 11 0.0 0.0 0.00 0.00 0.00 10 -202.7
20260506002751 11 0.0 0.0 0.00 0.00 0.00 10 -202.8
20260506001751 11 0.0 0.0 0.00 0.00 0.00 10 -202.8
20260506000751 10 0.0 0.0 0.00 0.00 0.00 10 -202.6
20260505235751 11 0.0 0.0 0.00 0.00 0.00 10 -202.8